User: anonymous   Login
Location: Unspecified
(0.0000°N, 0.0000°E)
Time: 10:26:02
(UTC+00:00)
Language:

GOMX 3 - Orbit

View from above orbital plane
View from above orbital plane
View from above satellite
View from above satellite

Ground track
Ground track

The orbit data is extracted from the following two-line orbital elements,

1 40949U 98067HA  16292.18357804  .08527750  12374-4  77882-3 0  9992
2 40949  51.6055 106.7696 0006699 286.1344  73.8944 16.38002265 59645
Epoch (UTC): 18 October 2016 04:24:21
Eccentricity: 0.0006699
inclination: 51.6055°
perigee height: 167 km
apogee height: 175 km
right ascension of ascending node: 106.7696°
argument of perigee: 286.1344°
revolutions per day: 16.38002265
mean anomaly at epoch: 73.8944°
orbit number at epoch: 5964

The dashed part of the orbit path shows where the satellite is in the earth's shadow,  

DLR